Location: Santa Barbara
(34.4500°N, 119.7700°W)
Time: 21:13:44
(UTC-07:00)

Cosmos 1626 Rocket - Visible Passes

Search period start: 27 July 2014 00:00
Search period end: 06 August 2014 00:00
Orbit: 605 x 633 km, 82.5° (Epoch: 27 July)

Date Brightness Start Highest point End Pass type
(mag) Time Alt. Az. Time Alt. Az. Time Alt. Az.
27 Jul 3.7 22:27:12 10° N 22:31:02 65° NNE 22:31:02 65° NNE visible
28 Jul 5.7 21:09:44 10° ENE 21:10:42 11° ENE 21:11:17 10° E visible
28 Jul 4.3 22:44:38 10° NNW 22:48:26 48° WNW 22:48:26 48° WNW visible
29 Jul 5.0 21:24:59 10° NNE 21:28:17 21° ENE 21:28:43 20° E visible
29 Jul 5.4 23:02:29 10° NW 23:05:53 25° W 23:05:53 25° W visible
30 Jul 4.0 21:41:37 10° N 21:45:45 40° E 21:46:10 39° E visible
30 Jul 6.2 23:21:12 10° WNW 23:23:09 13° W 23:23:20 13° W visible
31 Jul 3.4 21:58:44 10° N 22:03:06 83° E 22:03:39 67° SSE visible
01 Aug 5.6 20:40:54 10° NE 20:42:15 11° ENE 20:43:36 10° E visible
01 Aug 4.3 22:16:12 10° NNW 22:20:22 47° W 22:21:10 42° SW visible
02 Aug 4.9 20:56:26 10° NNE 20:59:49 22° ENE 21:01:32 17° ESE visible
02 Aug 5.4 22:34:05 10° NW 22:37:33 24° W 22:38:43 21° WSW visible
03 Aug 4.0 21:13:07 10° N 21:17:16 42° E 21:19:07 27° SE visible
03 Aug 6.3 22:52:59 10° WNW 22:54:38 12° W 22:56:17 10° WSW visible
04 Aug 3.4 21:30:15 10° N 21:34:37 88° E 21:36:43 30° S visible
05 Aug 4.5 21:47:45 10° NNW 21:51:53 44° W 21:54:22 21° SSW visible
